Tracking 33747 objects as of 11-Apr-2026
HD Live streaming from Space Station
objects crossing your sky now

COSMOS 829

Track COSMOS 829 now!
10-day predictions
COSMOS 829 is classified as:


NORAD ID: 8893
Int'l Code: 1976-054E
Perigee: 1,456.3 km
Apogee: 1,498.0 km
Inclination: 74.0 °
Period: 115.3 minutes
Semi major axis: 7848 km
RCS: 0.7039 m2 (medium)
Launch date: June 15, 1976
Source: Commonwealth of Independent States (former USSR) (CIS)
Launch site: PLESETSK MISSILE AND SPACE COMPLEX (PKMTR)
Your satellite tracking list
Your tracking list is empty




NASA's NSSDC Master Catalog

Two Line Element Set (TLE):
1  8893U 76054E   26101.17867656  .00000001  00000-0  11317-3 0  9993
2  8893  73.9989  73.3387 0026546 273.1610  97.1419 12.48679447270922
Source of the keplerian elements: AFSPC